User: anonymous   Login
Location: Unspecified
(0.0000°N, 0.0000°E)
Time: 15:54:47
(UTC+00:00)
Language:

IRIDIUM 114 - Orbit

View from above orbital plane
View from above orbital plane
View from above satellite
View from above satellite

Ground track
Ground track

The orbit data is extracted from the following two-line orbital elements,

1 41923U 17003G   25346.23635538  .00000178  00000-0  56453-4 0  9998
2 41923  86.3983 166.5721 0001784  89.2453 270.8947 14.34217037466451
Epoch (UTC): 12 December 2025 05:40:21
Eccentricity: 0.0001784
inclination: 86.3983°
perigee height: 776 km
apogee height: 779 km
right ascension of ascending node: 166.5721°
argument of perigee: 89.2453°
revolutions per day: 14.34217037
mean anomaly at epoch: 270.8947°
orbit number at epoch: 46645

The dashed part of the orbit path shows where the satellite is in the earth's shadow,  

DLR